This is the latest recevied weather packets stored in our database for station/object HB9EKO-12. If no packets are shown the sender has not sent any weather packets the latest 10 day(s).
| Time | Temp. | Humidity | Pressure | Rain* | Wind** | Luminosity | Snow |
|---|---|---|---|---|---|---|---|
| 1777732624 | 30° C | 24% | 1018 hPa | - | - | - | - |
| 1777731718 | 29.44° C | 26% | 1019 hPa | - | - | - | - |
| 1777730813 | 28.33° C | 29% | 1019 hPa | - | - | - | - |
| 1777729908 | 27.22° C | 28% | 1019 hPa | - | - | - | - |
| 1777729003 | 26.67° C | 29% | 1019 hPa | - | - | - | - |
| 1777728098 | 26.67° C | 30% | 1020 hPa | - | - | - | - |
| 1777727192 | 26.11° C | 28% | 1020 hPa | - | - | - | - |
| 1777726287 | 26.11° C | 28% | 1020 hPa | - | - | - | - |
| 1777725382 | 26.11° C | 29% | 1020 hPa | - | - | - | - |
| 1777724477 | 25.56° C | 34% | 1020 hPa | - | - | - | - |
| 1777723571 | 25° C | 35% | 1021 hPa | - | - | - | - |
| 1777722666 | 23.89° C | 38% | 1021 hPa | - | - | - | - |
| 1777721761 | 23.33° C | 39% | 1021 hPa | - | - | - | - |
| 1777720856 | 23.89° C | 43% | 1021 hPa | - | - | - | - |
| 1777719951 | 22.22° C | 42% | 1022 hPa | - | - | - | - |
| 1777719045 | 21.67° C | 44% | 1022 hPa | - | - | - | - |
| 1777718140 | 21.67° C | 45% | 1022 hPa | - | - | - | - |
| 1777717235 | 21.11° C | 45% | 1022 hPa | - | - | - | - |
| 1777716330 | 21.11° C | 45% | 1022 hPa | - | - | - | - |
| 1777715424 | 20.56° C | 44% | 1023 hPa | - | - | - | - |
| 1777714519 | 20° C | 45% | 1023 hPa | - | - | - | - |
| 1777713614 | 19.44° C | 46% | 1023 hPa | - | - | - | - |
| 1777712709 | 18.89° C | 48% | 1023 hPa | - | - | - | - |
| 1777711803 | 17.78° C | 51% | 1023 hPa | - | - | - | - |
| 1777710898 | 17.22° C | 50% | 1023 hPa | - | - | - | - |
* Rain since midnight (hover to see other rain measurements)
** Current wind speed in m/s (hover to see current wind gust speed)